• In Czech Republic
  • List of Countries
  • For 7 days
  • Water Temperature
  • Satellite Maps
  • Weather Map
  • Weather Widgets
  • user-avatar
    Login

    Hourly Weather Szombathely

    Today, 15 October, Monday

    Time Temperature Precipitation Wind Pressure Humidity
    00:00 +12°C° 0 mm 2 mps 747 mmHg 42%
    01:00 +11°C° 0 mm 1 mps 747 mmHg 44%
    02:00 +11°C° 0 mm 1 mps 747 mmHg 44%
    03:00 +11°C° 0 mm 1 mps 747 mmHg 44%
    04:00 +11°C° 0 mm 1 mps 747 mmHg 44%
    05:00 +11°C° 0 mm 1 mps 747 mmHg 45%
    06:00 +11°C° 0 mm 1 mps 747 mmHg 46%
    07:00 +11°C° 0 mm 1 mps 747 mmHg 47%
    08:00 +13°C° 0 mm 2 mps 747 mmHg 44%
    09:00 +14°C° 0 mm 3 mps 747 mmHg 42%
    10:00 +17°C° 0 mm 3 mps 747 mmHg 39%
    11:00 +18°C° 0 mm 3 mps 747 mmHg 38%
    12:00 +20°C° 0 mm 3 mps 747 mmHg 36%
    13:00 +21°C° 0 mm 4 mps 747 mmHg 35%
    14:00 +20°C° 0 mm 3 mps 746 mmHg 38%
    15:00 +20°C° 0 mm 3 mps 746 mmHg 40%
    16:00 +20°C° 0 mm 2 mps 746 mmHg 42%
    17:00 +18°C° 0 mm 2 mps 746 mmHg 46%
    18:00 +16°C° 0 mm 2 mps 746 mmHg 50%
    19:00 +15°C° 0 mm 1 mps 746 mmHg 53%
    20:00 +14°C° 0 mm 2 mps 746 mmHg 54%
    21:00 +14°C° 0 mm 2 mps 746 mmHg 54%
    22:00 +14°C° 0 mm 2 mps 746 mmHg 55%
    23:00 +13°C° 0 mm 2 mps 746 mmHg 56%

    Tomorrow, 16 October, Tuesday

    Time Temperature Precipitation Wind Pressure Humidity
    00:00 +13°C° 0 mm 2 mps 746 mmHg 58%
    01:00 +13°C° 0 mm 2 mps 746 mmHg 60%
    02:00 +12°C° 0 mm 2 mps 746 mmHg 61%
    03:00 +12°C° 0 mm 2 mps 746 mmHg 63%
    04:00 +12°C° 0 mm 2 mps 746 mmHg 65%
    05:00 +12°C° 0 mm 2 mps 746 mmHg 65%
    06:00 +12°C° 0 mm 2 mps 746 mmHg 66%
    07:00 +12°C° 0 mm 2 mps 747 mmHg 66%
    08:00 +14°C° 0 mm 2 mps 747 mmHg 61%
    09:00 +16°C° 0 mm 2 mps 747 mmHg 56%
    10:00 +18°C° 0 mm 2 mps 747 mmHg 51%
    11:00 +19°C° 0 mm 2 mps 747 mmHg 49%
    12:00 +20°C° 0 mm 3 mps 747 mmHg 47%
    13:00 +21°C° 0 mm 3 mps 746 mmHg 45%
    14:00 +21°C° 0 mm 2 mps 746 mmHg 47%
    15:00 +21°C° 0 mm 2 mps 746 mmHg 50%
    16:00 +20°C° 0 mm 2 mps 746 mmHg 52%
    17:00 +19°C° 0 mm 2 mps 746 mmHg 56%
    18:00 +18°C° 0 mm 2 mps 746 mmHg 60%
    19:00 +16°C° 0 mm 2 mps 746 mmHg 63%
    20:00 +16°C° 0 mm 1 mps 747 mmHg 65%
    21:00 +15°C° 0 mm 1 mps 747 mmHg 67%
    22:00 +15°C° 0 mm 1 mps 747 mmHg 69%
    23:00 +15°C° 0 mm 1 mps 747 mmHg 71%

    Day after tomorrow, 17 October, Wednesday

    Time Temperature Precipitation Wind Pressure Humidity
    00:00 +14°C° 0 mm 1 mps 747 mmHg 72%
    01:00 +14°C° 0 mm 1 mps 746 mmHg 74%
    02:00 +14°C° 0 mm 1 mps 746 mmHg 75%
    03:00 +14°C° 0 mm 1 mps 746 mmHg 75%
    04:00 +14°C° 0 mm 1 mps 746 mmHg 76%
    05:00 +14°C° 0.1 mm 1 mps 746 mmHg 76%
    06:00 +14°C° 0.1 mm 1 mps 746 mmHg 76%
    07:00 +14°C° 0.1 mm 1 mps 746 mmHg 76%
    08:00 +16°C° 0 mm 1 mps 746 mmHg 68%
    09:00 +19°C° 0 mm 1 mps 746 mmHg 61%
    10:00 +20°C° 0 mm 2 mps 747 mmHg 53%
    11:00 +21°C° 0 mm 2 mps 746 mmHg 48%
    12:00 +23°C° 0 mm 2 mps 746 mmHg 44%
    13:00 +24°C° 0 mm 2 mps 746 mmHg 39%
    14:00 +23°C° 0 mm 2 mps 745 mmHg 40%
    15:00 +23°C° 0 mm 2 mps 745 mmHg 41%
    16:00 +22°C° 0 mm 1 mps 745 mmHg 42%
    17:00 +21°C° 0 mm 1 mps 745 mmHg 44%
    18:00 +19°C° 0 mm 1 mps 745 mmHg 47%
    19:00 +16°C° 0 mm 1 mps 745 mmHg 49%
    20:00 +16°C° 0 mm 1 mps 745 mmHg 50%
    21:00 +15°C° 0 mm 1 mps 745 mmHg 51%
    22:00 +15°C° 0 mm 1 mps 745 mmHg 52%
    23:00 +14°C° 0 mm 1 mps 745 mmHg 52%

    18 October, Thursday

    Time Temperature Precipitation Wind Pressure Humidity
    00:00 +14°C° 0 mm 1 mps 745 mmHg 52%
    01:00 +13°C° 0 mm 1 mps 745 mmHg 53%
    02:00 +13°C° 0 mm 1 mps 745 mmHg 53%
    03:00 +13°C° 0 mm 1 mps 745 mmHg 53%
    04:00 +12°C° 0 mm 1 mps 745 mmHg 53%
    05:00 +13°C° 0 mm 1 mps 745 mmHg 53%
    06:00 +12°C° 0 mm 0 mps 745 mmHg 52%
    07:00 +12°C° 0 mm 0 mps 745 mmHg 52%
    08:00 +14°C° 0 mm 0 mps 745 mmHg 48%
    09:00 +18°C° 0 mm 1 mps 745 mmHg 44%
    10:00 +20°C° 0 mm 1 mps 745 mmHg 40%
    11:00 +21°C° 0 mm 1 mps 745 mmHg 40%
    12:00 +22°C° 0 mm 1 mps 745 mmHg 40%
    13:00 +23°C° 0 mm 1 mps 745 mmHg 40%
    14:00 +22°C° 0 mm 1 mps 744 mmHg 43%
    15:00 +22°C° 0 mm 1 mps 744 mmHg 46%
    16:00 +21°C° 0 mm 1 mps 744 mmHg 48%
    17:00 +20°C° 0 mm 1 mps 744 mmHg 51%
    18:00 +19°C° 0 mm 1 mps 745 mmHg 53%
    19:00 +16°C° 0 mm 1 mps 745 mmHg 55%
    20:00 +16°C° 0 mm 1 mps 745 mmHg 56%
    21:00 +16°C° 0 mm 1 mps 745 mmHg 58%
    22:00 +15°C° 0 mm 1 mps 746 mmHg 59%
    23:00 +15°C° 0 mm 1 mps 746 mmHg 60%

    19 October, Friday

    Time Temperature Precipitation Wind Pressure Humidity
    00:00 +14°C° 0 mm 1 mps 746 mmHg 61%
    01:00 +14°C° 0 mm 1 mps 746 mmHg 63%
    02:00 +14°C° 0 mm 1 mps 745 mmHg 64%
    03:00 +13°C° 0 mm 1 mps 745 mmHg 64%
    04:00 +13°C° 0 mm 1 mps 745 mmHg 65%
    05:00 +13°C° 0 mm 1 mps 746 mmHg 65%
    06:00 +13°C° 0 mm 1 mps 746 mmHg 66%
    07:00 +13°C° 0 mm 1 mps 746 mmHg 66%
    08:00 +15°C° 0 mm 1 mps 746 mmHg 59%
    09:00 +17°C° 0 mm 2 mps 746 mmHg 52%
    10:00 +19°C° 0 mm 2 mps 746 mmHg 46%
    11:00 +20°C° 0 mm 2 mps 746 mmHg 44%
    12:00 +23°C° 0 mm 2 mps 746 mmHg 42%
    13:00 +24°C° 0 mm 2 mps 746 mmHg 40%
    14:00 +23°C° 0 mm 2 mps 746 mmHg 43%
    15:00 +21°C° 0 mm 2 mps 746 mmHg 45%
    16:00 +21°C° 0 mm 2 mps 746 mmHg 48%
    17:00 +19°C° 0 mm 2 mps 746 mmHg 52%
    18:00 +17°C° 0 mm 2 mps 746 mmHg 57%
    19:00 +16°C° 0 mm 2 mps 746 mmHg 61%
    20:00 +15°C° 0 mm 2 mps 747 mmHg 63%
    21:00 +15°C° 0 mm 2 mps 747 mmHg 65%
    22:00 +14°C° 0 mm 2 mps 747 mmHg 67%
    23:00 +14°C° 0 mm 2 mps 747 mmHg 68%

    20 October, Saturday

    Time Temperature Precipitation Wind Pressure Humidity
    00:00 +13°C° 0 mm 2 mps 747 mmHg 70%
    01:00 +13°C° 0 mm 2 mps 747 mmHg 72%
    02:00 +13°C° 0 mm 2 mps 747 mmHg 74%
    03:00 +12°C° 0 mm 2 mps 747 mmHg 77%
    04:00 +12°C° 0 mm 2 mps 747 mmHg 79%
    05:00 +12°C° 0 mm 2 mps 748 mmHg 81%
    06:00 +12°C° 0 mm 2 mps 748 mmHg 82%
    07:00 +11°C° 0 mm 3 mps 748 mmHg 84%
    08:00 +13°C° 0 mm 3 mps 748 mmHg 76%
    09:00 +15°C° 0 mm 4 mps 749 mmHg 68%
    10:00 +18°C° 0 mm 4 mps 749 mmHg 60%
    11:00 +19°C° 0 mm 4 mps 749 mmHg 57%
    12:00 +19°C° 0 mm 4 mps 749 mmHg 54%
    13:00 +20°C° 0 mm 5 mps 749 mmHg 52%
    14:00 +20°C° 0 mm 4 mps 749 mmHg 54%
    15:00 +19°C° 0 mm 4 mps 748 mmHg 56%
    16:00 +18°C° 0 mm 4 mps 748 mmHg 58%
    17:00 +17°C° 0 mm 4 mps 749 mmHg 63%
    18:00 +16°C° 0 mm 3 mps 749 mmHg 68%
    19:00 +13°C° 0 mm 3 mps 750 mmHg 74%
    20:00 +13°C° 0 mm 3 mps 750 mmHg 73%
    21:00 +12°C° 0 mm 3 mps 750 mmHg 71%
    22:00 +12°C° 0 mm 4 mps 751 mmHg 70%
    23:00 +11°C° 0 mm 4 mps 751 mmHg 68%
    Show more